RadFxSat-2 (99995 NORAD) Tracking and Keplerian Element Data

This shows tracking and keplerian element data for the satellite.

Feedback or suggestion? Click here.




ElementValue
Catalog99995
NameRadFxSat-2
Epoch Orbit0
Epoch Day17.85640046
Epoch Year2021
RAAN134
Inclination60.6849
Eccentricity0.001281
Argument of Perigee280.8458
Mean Anonmoly55.7744
Mean Motion15.21152014
Decay Rate0
L11 99995U 00000 21017.85640046 .00000000 00000-0 10000-4 0 03
L22 99995 60.6849 134.0000 0012810 280.8458 55.7744 15.21152014 05

Live tracking and technical data element details for RadFxSat-2 (NORAD 99995). RadFxSat-2 can be tracked NOW for your location showing map with azimuth and elevation plus other details from your city location.

Track the satellite on the map from your city or location and see movement details for azimuth, elevation, latitude, longitude, range, height, and movement on the map or in text.







IsCatalogInMostPopularTable: catalog: 99995, numindb: 773
Update: records affected: 1



GetName: 99995 RadFxSat-2

Hit Count: updated at: Mon, 02 Aug 2021 02:24:22 GMT